Location: Ernsee
(50.8780°N, 12.0389°E)
Time: 06:29:27
(UTC+00:00)

BREEZE M DEB (TANK) - Pass Details

Date: 20 January 2020
Orbit: 321 x 13662 km, 49.6° (Epoch: 23 February)

Event Time Altitude Azimuth Distance (km) Brightness Sun altitude
Exits shadow 05:04:46 15° 199° (SSW) 1,173 4.4 -18.3°
Maximum altitude 05:06:36 30° 141° (SE) 929 4.4 -18.0°
Drops below altitude 10° 05:11:18 10° 80° (E) 2,776 7.5 -17.3°
Sets 05:16:07 0° 72° (ENE) 5,010 8.8 -16.6°
